Hourly Weather Kozodub

Today, 19 January, Tuesday

Time Temperature Precipitation Wind Pressure Humidity
00:00 -19°C° 0 mm 3 mps 748 mmHg 96%
01:00 -19°C° 0 mm 3 mps 748 mmHg 96%
02:00 -19°C° 0 mm 3 mps 748 mmHg 95%
03:00 -19°C° 0 mm 3 mps 748 mmHg 95%
04:00 -18°C° 0 mm 3 mps 748 mmHg 94%
05:00 -19°C° 0 mm 4 mps 748 mmHg 93%
06:00 -18°C° 0 mm 3 mps 749 mmHg 93%
07:00 -18°C° 0 mm 3 mps 749 mmHg 93%
08:00 -18°C° 0 mm 3 mps 749 mmHg 93%
09:00 -17°C° 0 mm 3 mps 749 mmHg 91%
10:00 -16°C° 0 mm 3 mps 750 mmHg 88%
11:00 -16°C° 0 mm 3 mps 750 mmHg 86%
12:00 -15°C° 0 mm 3 mps 749 mmHg 85%
13:00 -15°C° 0 mm 3 mps 749 mmHg 84%
14:00 -15°C° 0 mm 3 mps 749 mmHg 84%
15:00 -16°C° 0 mm 3 mps 749 mmHg 86%
16:00 -16°C° 0 mm 2 mps 750 mmHg 89%
17:00 -17°C° 0 mm 2 mps 750 mmHg 91%
18:00 -17°C° 0 mm 2 mps 750 mmHg 92%
19:00 -18°C° 0 mm 2 mps 750 mmHg 92%
20:00 -18°C° 0 mm 2 mps 750 mmHg 93%
21:00 -16°C° 0 mm 1 mps 751 mmHg 93%
22:00 -16°C° 0 mm 1 mps 751 mmHg 92%
23:00 -16°C° 0 mm 1 mps 751 mmHg 92%

Tomorrow, 20 January, Wednesday

Time Temperature Precipitation Wind Pressure Humidity
00:00 -16°C° 0 mm 1 mps 751 mmHg 92%
01:00 -16°C° 0 mm 1 mps 751 mmHg 92%
02:00 -17°C° 0 mm 1 mps 752 mmHg 92%
03:00 -17°C° 0 mm 1 mps 752 mmHg 92%
04:00 -17°C° 0 mm 1 mps 752 mmHg 92%
05:00 -17°C° 0 mm 1 mps 752 mmHg 91%
06:00 -17°C° 0 mm 1 mps 752 mmHg 91%
07:00 -17°C° 0 mm 1 mps 752 mmHg 91%
08:00 -17°C° 0 mm 1 mps 753 mmHg 91%
09:00 -15°C° 0 mm 1 mps 753 mmHg 87%
10:00 -14°C° 0 mm 1 mps 753 mmHg 84%
11:00 -12°C° 0 mm 1 mps 754 mmHg 81%
12:00 -12°C° 0 mm 1 mps 753 mmHg 80%
13:00 -11°C° 0 mm 1 mps 753 mmHg 79%
14:00 -10°C° 0 mm 1 mps 753 mmHg 78%
15:00 -13°C° 0 mm 2 mps 753 mmHg 81%
16:00 -14°C° 0 mm 2 mps 753 mmHg 84%
17:00 -15°C° 0 mm 2 mps 754 mmHg 86%
18:00 -15°C° 0 mm 2 mps 754 mmHg 88%
19:00 -15°C° 0 mm 2 mps 754 mmHg 89%
20:00 -17°C° 0 mm 3 mps 754 mmHg 91%
21:00 -17°C° 0 mm 3 mps 754 mmHg 91%
22:00 -17°C° 0 mm 3 mps 754 mmHg 91%
23:00 -16°C° 0 mm 3 mps 754 mmHg 91%

Day after tomorrow, 21 January, Thursday

Time Temperature Precipitation Wind Pressure Humidity
00:00 -16°C° 0 mm 3 mps 754 mmHg 91%
01:00 -16°C° 0 mm 3 mps 754 mmHg 91%
02:00 -16°C° 0 mm 3 mps 754 mmHg 90%
03:00 -15°C° 0 mm 3 mps 754 mmHg 91%
04:00 -16°C° 0 mm 4 mps 754 mmHg 92%
05:00 -15°C° 0 mm 4 mps 753 mmHg 92%
06:00 -14°C° 0 mm 4 mps 753 mmHg 93%
07:00 -12°C° 0 mm 4 mps 753 mmHg 94%
08:00 -11°C° 0 mm 4 mps 753 mmHg 95%
09:00 -10°C° 0 mm 5 mps 753 mmHg 95%
10:00 -8°C° 0 mm 6 mps 753 mmHg 95%
11:00 -5°C° 0 mm 6 mps 753 mmHg 95%
12:00 -4°C° 0 mm 6 mps 753 mmHg 95%
13:00 -4°C° 0 mm 6 mps 752 mmHg 94%
14:00 -2°C° 0 mm 5 mps 752 mmHg 94%
15:00 -2°C° 0 mm 5 mps 752 mmHg 94%
16:00 -2°C° 0 mm 5 mps 752 mmHg 94%
17:00 -2°C° 0 mm 5 mps 751 mmHg 95%
18:00 -2°C° 0 mm 5 mps 751 mmHg 94%
19:00 -2°C° 0 mm 5 mps 751 mmHg 93%
20:00 -2°C° 0 mm 5 mps 751 mmHg 93%
21:00 -4°C° 0 mm 5 mps 751 mmHg 94%
22:00 -4°C° 0 mm 5 mps 751 mmHg 95%
23:00 -5°C° 0 mm 5 mps 750 mmHg 96%

22 January, Friday

Time Temperature Precipitation Wind Pressure Humidity
00:00 -4°C° 0 mm 5 mps 750 mmHg 95%
01:00 -4°C° 0 mm 5 mps 750 mmHg 95%
02:00 -4°C° 0 mm 5 mps 750 mmHg 95%
03:00 -2°C° 0 mm 5 mps 750 mmHg 95%
04:00 -2°C° 0 mm 6 mps 750 mmHg 96%
05:00 -1°C° 0 mm 6 mps 750 mmHg 96%
06:00 -1°C° 0 mm 6 mps 750 mmHg 96%
07:00 -1°C° 0 mm 6 mps 750 mmHg 96%
08:00 -1°C° 0 mm 6 mps 750 mmHg 96%
09:00 -1°C° 0 mm 6 mps 750 mmHg 96%
10:00 0°C° 0 mm 7 mps 750 mmHg 97%
11:00 0°C° 0 mm 7 mps 749 mmHg 97%
12:00 +1°C° 0 mm 6 mps 749 mmHg 97%
13:00 +1°C° 0 mm 6 mps 749 mmHg 97%
14:00 +2°C° 0 mm 6 mps 748 mmHg 97%
15:00 +1°C° 0 mm 6 mps 748 mmHg 96%
16:00 +1°C° 0 mm 5 mps 748 mmHg 95%
17:00 +1°C° 0 mm 5 mps 748 mmHg 95%
18:00 +1°C° 0 mm 5 mps 748 mmHg 94%
19:00 +1°C° 0 mm 6 mps 748 mmHg 94%
20:00 +1°C° 0 mm 6 mps 748 mmHg 93%
21:00 +1°C° 0 mm 6 mps 747 mmHg 94%
22:00 +1°C° 0 mm 6 mps 747 mmHg 95%
23:00 0°C° 0 mm 7 mps 747 mmHg 95%

23 January, Saturday

Time Temperature Precipitation Wind Pressure Humidity
00:00 +1°C° 0 mm 6 mps 747 mmHg 95%
01:00 +2°C° 0 mm 6 mps 747 mmHg 95%
02:00 +2°C° 0 mm 6 mps 747 mmHg 95%
03:00 +2°C° 0 mm 6 mps 747 mmHg 95%
04:00 +1°C° 0 mm 6 mps 746 mmHg 95%
05:00 +1°C° 0 mm 6 mps 746 mmHg 95%
06:00 +1°C° 0 mm 6 mps 746 mmHg 95%
07:00 +2°C° 0 mm 6 mps 746 mmHg 95%
08:00 +2°C° 0 mm 6 mps 747 mmHg 95%
09:00 +2°C° 0 mm 6 mps 746 mmHg 95%
10:00 +2°C° 0 mm 6 mps 746 mmHg 95%
11:00 +3°C° 0 mm 6 mps 746 mmHg 95%
12:00 +3°C° 0 mm 6 mps 746 mmHg 95%
13:00 +3°C° 0 mm 6 mps 745 mmHg 95%
14:00 +4°C° 0 mm 6 mps 745 mmHg 95%
15:00 +4°C° 0 mm 6 mps 745 mmHg 94%
16:00 +4°C° 0 mm 6 mps 745 mmHg 94%
17:00 +4°C° 0 mm 6 mps 745 mmHg 93%
18:00 +4°C° 0 mm 6 mps 745 mmHg 93%
19:00 +4°C° 0 mm 7 mps 745 mmHg 93%
20:00 +4°C° 0 mm 7 mps 745 mmHg 92%
21:00 +3°C° 0 mm 7 mps 745 mmHg 92%
22:00 +3°C° 0 mm 7 mps 745 mmHg 91%
23:00 +3°C° 0 mm 7 mps 744 mmHg 91%

24 January, Sunday

Time Temperature Precipitation Wind Pressure Humidity
00:00 +3°C° 0 mm 7 mps 744 mmHg 90%
01:00 +3°C° 0 mm 7 mps 744 mmHg 89%
02:00 +3°C° 0 mm 7 mps 744 mmHg 88%
03:00 +3°C° 0.4 mm 7 mps 744 mmHg 88%
04:00 +3°C° 0.4 mm 7 mps 743 mmHg 88%
05:00 +3°C° 0.4 mm 7 mps 743 mmHg 88%
06:00 +3°C° 0.3 mm 7 mps 743 mmHg 88%
07:00 +3°C° 0.3 mm 7 mps 743 mmHg 89%
08:00 +3°C° 0.3 mm 7 mps 743 mmHg 89%
09:00 +4°C° 0.1 mm 8 mps 743 mmHg 86%
10:00 +5°C° 0.1 mm 8 mps 743 mmHg 84%
11:00 +5°C° 0.1 mm 8 mps 743 mmHg 81%
12:00 +5°C° 0.1 mm 8 mps 742 mmHg 81%
13:00 +5°C° 0.1 mm 8 mps 742 mmHg 80%
14:00 +5°C° 0.1 mm 7 mps 742 mmHg 80%
15:00 +5°C° 0.1 mm 7 mps 742 mmHg 79%
16:00 +5°C° 0.1 mm 7 mps 742 mmHg 79%
17:00 +4°C° 0.1 mm 7 mps 742 mmHg 79%
18:00 +4°C° 0 mm 7 mps 741 mmHg 81%
19:00 +4°C° 0 mm 7 mps 741 mmHg 84%
20:00 +4°C° 0 mm 7 mps 741 mmHg 86%
21:00 +3°C° 0 mm 6 mps 741 mmHg 87%
22:00 +3°C° 0 mm 6 mps 741 mmHg 88%
23:00 +2°C° 0 mm 6 mps 740 mmHg 89%
Show more